QPF
0.00 0.00 0.00 0.00 0.00 0.00 0.00 0.00 0.00 0.00 0.00 0.00 0.00 0.00 0.00 0.00 0.00 0.00 0.00 0.00 0.00 0.00 0.00 0.00 0.00 0.00 0.00 0.00 0.00 0.00 0.00 0.00 0.00 0.00 0.00 0.00 0.01 0.02 0.04 0.02 0.01 0.01 0.01
0.00 0.00 0.00 0.00 0.00 0.00 0.00 0.00 0.00 0.00 0.00 0.00 0.00 0.00 0.00 0.00 0.00 0.00 0.00 0.00 0.00 0.00 0.00 0.00 0.00 0.00 0.00 0.00 0.00 0.00 0.00 0.00 0.00 0.00 0.00 0.01 0.03 0.07 0.06 0.01 0.00 0.01 0.02
0.00 0.00 0.00 0.00 0.00 0.00 0.00 0.00 0.00 0.00 0.00 0.00 0.00 0.00 0.00 0.00 0.00 0.00 0.00 0.00 0.00 0.00 0.00 0.00 0.00 0.00 0.00 0.00 0.00 0.00 0.00 0.00 0.00 0.00 0.00 0.00 0.02 0.06 0.06 0.01 0.00 0.01 0.01
0.00 0.00 0.00 0.00 0.00 0.00 0.00 0.00 0.00 0.00 0.00 0.00 0.00 0.00 0.00 0.00 0.00 0.00 0.00 0.00 0.00 0.00 0.00 0.00 0.00 0.00 0.00 0.00 0.00 0.00 0.00 0.00 0.00 0.00 0.00 0.00 0.00 0.02 0.03 0.02 0.01 0.01 0.01
0.00 0.00 0.00 0.00 0.00 0.00 0.00 0.00 0.00 0.00 0.00 0.00 0.00 0.00 0.00 0.00 0.00 0.00 0.00 0.00 0.00 0.00 0.00 0.00 0.00 0.00 0.00 0.00 0.00 0.00 0.00 0.00 0.00 0.00 0.00 0.00 0.00 0.01 0.01 0.01 0.01 0.00 0.00
0.00 0.00 0.00 0.00 0.00 0.00 0.00 0.00 0.00 0.00 0.00 0.00 0.00 0.00 0.00 0.00 0.00 0.00 0.00 0.00 0.00 0.00 0.00 0.00 0.00 0.00 0.00 0.00 0.00 0.00 0.00 0.00 0.00 0.00 0.00 0.00 0.00 0.00 0.01 0.02 0.01 0.01 0.00
0.00 0.00 0.00 0.00 0.00 0.00 0.00 0.00 0.00 0.00 0.00 0.00 0.00 0.00 0.00 0.00 0.00 0.00 0.00 0.00 0.00 0.00 0.00 0.00 0.00 0.00 0.00 0.00 0.00 0.00 0.00 0.00 0.00 0.00 0.00 0.01 0.00 0.01 0.03 0.03 0.03 0.02 0.01
0.00 0.00 0.00 0.00 0.00 0.00 0.00 0.00 0.00 0.00 0.00 0.00 0.00 0.00 0.00 0.00 0.00 0.00 0.00 0.00 0.00 0.00 0.00 0.00 0.00 0.00 0.00 0.00 0.00 0.00 0.00 0.00 0.00 0.00 0.00 0.00 0.00 0.01 0.03 0.05 0.05 0.04 0.02
0.00 0.00 0.00 0.00 0.00 0.00 0.00 0.00 0.00 0.00 0.00 0.00 0.00 0.00 0.00 0.00 0.00 0.00 0.00 0.00 0.00 0.00 0.00 0.00 0.00 0.00 0.00 0.00 0.00 0.00 0.00 0.00 0.00 0.00 0.00 0.00 0.00 0.01 0.03 0.06 0.07 0.06 0.04
0.00 0.00 0.00 0.00 0.00 0.00 0.00 0.00 0.00 0.00 0.00 0.00 0.00 0.00 0.00 0.00 0.00 0.00 0.00 0.00 0.00 0.00 0.01 0.01 0.00 0.00 0.00 0.00 0.00 0.00 0.00 0.00 0.00 0.00 0.00 0.00 0.00 0.02 0.04 0.07 0.08 0.07 0.07
0.00 0.00 0.00 0.00 0.00 0.00 0.00 0.00 0.00 0.00 0.00 0.00 0.00 0.00 0.00 0.00 0.00 0.00 0.01 0.02 0.02 0.04 0.06 0.06 0.04 0.03 0.02 0.01 0.01 0.01 0.01 0.01 0.00 0.00 0.00 0.00 0.01 0.03 0.06 0.12 0.14 0.12 0.10
0.00 0.00 0.00 0.00 0.00 0.00 0.00 0.00 0.00 0.01 0.00 0.00 0.00 0.00 0.01 0.01 0.01 0.01 0.02 0.05 0.11 0.16 0.18 0.16 0.15 0.11 0.06 0.02 0.03 0.04 0.01 0.01 0.01 0.01 0.00 0.01 0.02 0.03 0.07 0.12 0.15 0.15 0.14
0.00 0.00 0.00 0.00 0.01 0.01 0.00 0.00 0.01 0.01 0.00 0.01 0.01 0.01 0.02 0.03 0.03 0.03 0.04 0.07 0.12 0.16 0.12 0.14 0.17 0.10 0.08 0.07 0.07 0.06 0.04 0.04 0.03 0.02 0.01 0.02 0.05 0.08 0.11 0.14 0.16 0.17 0.18
0.01 0.01 0.01 0.01 0.01 0.01 0.01 0.01 0.01 0.01 0.01 0.02 0.03 0.04 0.05 0.08 0.09 0.08 0.08 0.07 0.08 0.10 0.12 0.14 0.14 0.13 0.11 0.11 0.13 0.10 0.09 0.08 0.07 0.06 0.04 0.03 0.09 0.12 0.17 0.20 0.20 0.20 0.19
0.03 0.03 0.03 0.02 0.02 0.04 0.04 0.03 0.04 0.04 0.05 0.07 0.09 0.10 0.09 0.11 0.10 0.09 0.07 0.08 0.07 0.08 0.09 0.12 0.11 0.12 0.11 0.12 0.10 0.10 0.11 0.11 0.10 0.07 0.07 0.05 0.09 0.14 0.19 0.23 0.24 0.22 0.21
0.06 0.11 0.14 0.13 0.12 0.13 0.12 0.13 0.13 0.14 0.15 0.17 0.18 0.16 0.15 0.14 0.13 0.12 0.10 0.08 0.06 0.05 0.05 0.07 0.07 0.07 0.07 0.08 0.06 0.05 0.06 0.08 0.07 0.06 0.07 0.06 0.05 0.09 0.14 0.19 0.20 0.21 0.21
0.14 0.22 0.30 0.35 0.38 0.38 0.35 0.30 0.27 0.29 0.31 0.31 0.27 0.25 0.25 0.23 0.20 0.16 0.11 0.08 0.06 0.04 0.04 0.04 0.03 0.03 0.03 0.04 0.03 0.03 0.04 0.04 0.04 0.04 0.04 0.03 0.02 0.05 0.10 0.14 0.17 0.17 0.19
0.16 0.24 0.35 0.50 0.61 0.62 0.59 0.54 0.51 0.47 0.42 0.39 0.36 0.35 0.37 0.30 0.20 0.15 0.10 0.06 0.04 0.03 0.02 0.02 0.02 0.01 0.01 0.01 0.01 0.02 0.02 0.01 0.02 0.02 0.03 0.03 0.02 0.03 0.05 0.10 0.14 0.14 0.16
0.17 0.31 0.50 0.59 0.70 0.77 0.76 0.78 0.77 0.67 0.59 0.51 0.48 0.40 0.38 0.32 0.18 0.13 0.08 0.04 0.02 0.02 0.01 0.01 0.01 0.00 0.00 0.01 0.01 0.01 0.01 0.01 0.01 0.01 0.01 0.02 0.02 0.03 0.03 0.05 0.08 0.09 0.12
0.25 0.40 0.62 0.81 0.97 0.96 0.95 0.98 0.87 0.78 0.68 0.58 0.49 0.40 0.32 0.22 0.15 0.10 0.05 0.03 0.02 0.01 0.01 0.01 0.01 0.00 0.00 0.00 0.00 0.00 0.00 0.00 0.00 0.01 0.00 0.00 0.02 0.02 0.02 0.02 0.03 0.04 0.07
0.31 0.38 0.54 0.74 0.84 0.89 0.93 0.88 0.73 0.68 0.57 0.46 0.39 0.30 0.22 0.17 0.13 0.08 0.04 0.03 0.02 0.01 0.00 0.00 0.00 0.00 0.00 0.00 0.00 0.00 0.00 0.00 0.00 0.00 0.00 0.00 0.01 0.01 0.01 0.01 0.01 0.02 0.02
0.28 0.37 0.40 0.44 0.41 0.42 0.45 0.48 0.42 0.37 0.35 0.31 0.25 0.19 0.14 0.12 0.10 0.07 0.05 0.03 0.01 0.01 0.00 0.00 0.00 0.00 0.00 0.00 0.00 0.00 0.00 0.00 0.00 0.00 0.00 0.00 0.00 0.00 0.01 0.00 0.00 0.00 0.01
0.24 0.29 0.30 0.24 0.21 0.20 0.20 0.20 0.18 0.19 0.20 0.20 0.17 0.15 0.13 0.12 0.11 0.10 0.07 0.04 0.02 0.02 0.01 0.00 0.00 0.00 0.00 0.00 0.00 0.00 0.00 0.00 0.00 0.00 0.00 0.00 0.00 0.00 0.00 0.00 0.00 0.00 0.01
0.19 0.19 0.19 0.16 0.12 0.12 0.13 0.14 0.14 0.15 0.16 0.17 0.17 0.17 0.17 0.16 0.16 0.15 0.10 0.07 0.05 0.04 0.02 0.01 0.00 0.00 0.00 0.00 0.00 0.00 0.00 0.00 0.00 0.00 0.00 0.00 0.00 0.00 0.00 0.00 0.00 0.00 0.00
0.12 0.12 0.13 0.12 0.11 0.10 0.11 0.11 0.13 0.14 0.13 0.13 0.15 0.17 0.19 0.20 0.19 0.16 0.13 0.10 0.08 0.06 0.05 0.03 0.01 0.00 0.00 0.00 0.00 0.00 0.00 0.00 0.00 0.00 0.00 0.00 0.00 0.00 0.00 0.00 0.00 0.00 0.00
0.06 0.04 0.04 0.04 0.05 0.05 0.05 0.06 0.07 0.09 0.10 0.10 0.12 0.13 0.15 0.18 0.20 0.18 0.17 0.14 0.12 0.10 0.08 0.07 0.04 0.02 0.01 0.01 0.00 0.00 0.00 0.00 0.00 0.00 0.00 0.00 0.00 0.00 0.00 0.00 0.00 0.00 0.00
MSLP
1009.62 1009.39 1009.43 1009.74 1010.24 1010.81 1011.36 1011.80 1012.08 1012.21 1012.24 1012.23 1012.26 1012.37 1012.59 1012.88 1013.21 1013.53 1013.78 1013.95 1014.03 1014.05 1014.05 1014.08 1014.16 1014.30 1014.49 1014.71 1014.93 1015.12 1015.28 1015.40 1015.51 1015.61 1015.72 1015.86 1016.02 1016.19 1016.36 1016.52 1016.66 1016.79 1016.91
1009.17 1009.11 1009.31 1009.74 1010.31 1010.93 1011.49 1011.92 1012.19 1012.30 1012.33 1012.35 1012.41 1012.57 1012.82 1013.14 1013.48 1013.78 1014.00 1014.12 1014.17 1014.17 1014.17 1014.20 1014.29 1014.44 1014.63 1014.85 1015.05 1015.22 1015.36 1015.47 1015.58 1015.70 1015.85 1016.02 1016.20 1016.40 1016.58 1016.74 1016.88 1017.00 1017.13
1008.75 1008.85 1009.18 1009.71 1010.34 1010.99 1011.55 1011.96 1012.22 1012.34 1012.39 1012.45 1012.56 1012.76 1013.05 1013.37 1013.70 1013.97 1014.14 1014.23 1014.25 1014.23 1014.23 1014.28 1014.39 1014.55 1014.75 1014.95 1015.14 1015.29 1015.41 1015.51 1015.63 1015.78 1015.95 1016.16 1016.38 1016.60 1016.79 1016.95 1017.08 1017.20 1017.32
1008.45 1008.68 1009.11 1009.70 1010.36 1011.01 1011.56 1011.96 1012.22 1012.36 1012.45 1012.55 1012.71 1012.95 1013.25 1013.57 1013.87 1014.10 1014.23 1014.28 1014.27 1014.26 1014.28 1014.35 1014.49 1014.67 1014.88 1015.07 1015.23 1015.35 1015.45 1015.55 1015.68 1015.84 1016.06 1016.30 1016.55 1016.78 1016.98 1017.13 1017.26 1017.37 1017.49
1008.31 1008.63 1009.12 1009.74 1010.41 1011.05 1011.58 1011.98 1012.24 1012.40 1012.53 1012.67 1012.87 1013.14 1013.44 1013.75 1014.01 1014.19 1014.27 1014.30 1014.29 1014.29 1014.34 1014.45 1014.62 1014.83 1015.03 1015.21 1015.34 1015.43 1015.50 1015.59 1015.72 1015.91 1016.15 1016.42 1016.69 1016.93 1017.13 1017.28 1017.39 1017.50 1017.63
1008.35 1008.72 1009.24 1009.87 1010.53 1011.14 1011.65 1012.04 1012.30 1012.49 1012.65 1012.84 1013.07 1013.35 1013.65 1013.92 1014.14 1014.27 1014.32 1014.32 1014.31 1014.34 1014.42 1014.58 1014.79 1015.01 1015.22 1015.37 1015.47 1015.53 1015.57 1015.64 1015.76 1015.95 1016.21 1016.49 1016.77 1017.02 1017.21 1017.35 1017.46 1017.56 1017.70
1008.55 1008.94 1009.46 1010.08 1010.71 1011.30 1011.79 1012.16 1012.43 1012.65 1012.84 1013.06 1013.32 1013.61 1013.89 1014.13 1014.29 1014.38 1014.39 1014.37 1014.37 1014.42 1014.54 1014.73 1014.97 1015.21 1015.41 1015.54 1015.60 1015.62 1015.62 1015.66 1015.77 1015.95 1016.21 1016.49 1016.77 1017.01 1017.20 1017.32 1017.42 1017.53 1017.68
1008.86 1009.25 1009.76 1010.35 1010.95 1011.51 1011.97 1012.33 1012.61 1012.85 1013.08 1013.33 1013.61 1013.89 1014.16 1014.36 1014.48 1014.52 1014.50 1014.46 1014.45 1014.51 1014.66 1014.87 1015.12 1015.36 1015.55 1015.65 1015.68 1015.66 1015.62 1015.63 1015.71 1015.88 1016.12 1016.39 1016.66 1016.89 1017.06 1017.17 1017.27 1017.37 1017.54
1009.21 1009.60 1010.10 1010.67 1011.23 1011.74 1012.17 1012.52 1012.80 1013.05 1013.31 1013.59 1013.89 1014.18 1014.43 1014.60 1014.68 1014.68 1014.62 1014.55 1014.53 1014.58 1014.72 1014.93 1015.18 1015.41 1015.57 1015.65 1015.65 1015.59 1015.53 1015.51 1015.56 1015.70 1015.92 1016.17 1016.42 1016.64 1016.79 1016.90 1016.99 1017.10 1017.28
1009.56 1009.97 1010.45 1010.98 1011.50 1011.96 1012.34 1012.66 1012.94 1013.20 1013.48 1013.79 1014.11 1014.41 1014.65 1014.81 1014.86 1014.82 1014.72 1014.61 1014.55 1014.58 1014.69 1014.88 1015.10 1015.30 1015.45 1015.50 1015.48 1015.40 1015.32 1015.28 1015.31 1015.42 1015.61 1015.84 1016.08 1016.27 1016.42 1016.53 1016.62 1016.74 1016.92
1009.89 1010.31 1010.78 1011.27 1011.72 1012.12 1012.44 1012.72 1012.97 1013.23 1013.52 1013.85 1014.19 1014.51 1014.76 1014.91 1014.94 1014.87 1014.74 1014.59 1014.49 1014.47 1014.53 1014.68 1014.86 1015.03 1015.16 1015.20 1015.17 1015.09 1015.01 1014.95 1014.97 1015.06 1015.23 1015.43 1015.64 1015.83 1015.97 1016.08 1016.18 1016.31 1016.49
1010.20 1010.63 1011.08 1011.51 1011.88 1012.19 1012.43 1012.63 1012.84 1013.07 1013.36 1013.70 1014.06 1014.41 1014.68 1014.84 1014.88 1014.80 1014.65 1014.47 1014.32 1014.24 1014.25 1014.34 1014.48 1014.63 1014.73 1014.78 1014.76 1014.70 1014.62 1014.57 1014.57 1014.65 1014.79 1014.96 1015.15 1015.33 1015.47 1015.59 1015.71 1015.85 1016.03
1010.50 1010.94 1011.34 1011.69 1011.96 1012.16 1012.29 1012.40 1012.54 1012.73 1012.99 1013.33 1013.71 1014.08 1014.39 1014.58 1014.64 1014.58 1014.42 1014.23 1014.04 1013.92 1013.88 1013.92 1014.02 1014.15 1014.25 1014.31 1014.31 1014.27 1014.22 1014.17 1014.17 1014.22 1014.33 1014.48 1014.64 1014.81 1014.95 1015.09 1015.22 1015.37 1015.56
1010.82 1011.22 1011.57 1011.82 1011.97 1012.04 1012.05 1012.05 1012.09 1012.22 1012.45 1012.77 1013.15 1013.54 1013.88 1014.12 1014.22 1014.20 1014.07 1013.88 1013.70 1013.55 1013.48 1013.49 1013.56 1013.67 1013.78 1013.86 1013.90 1013.89 1013.86 1013.82 1013.81 1013.83 1013.90 1014.01 1014.14 1014.28 1014.43 1014.57 1014.72 1014.89 1015.09
1011.15 1011.50 1011.77 1011.91 1011.93 1011.86 1011.75 1011.63 1011.58 1011.62 1011.79 1012.08 1012.45 1012.85 1013.21 1013.50 1013.66 1013.70 1013.62 1013.48 1013.32 1013.18 1013.10 1013.10 1013.17 1013.28 1013.40 1013.51 1013.58 1013.61 1013.60 1013.56 1013.52 1013.51 1013.52 1013.57 1013.65 1013.76 1013.90 1014.05 1014.22 1014.40 1014.61
1011.49 1011.77 1011.94 1011.97 1011.87 1011.69 1011.46 1011.24 1011.09 1011.05 1011.15 1011.38 1011.72 1012.10 1012.48 1012.80 1013.02 1013.12 1013.12 1013.05 1012.94 1012.85 1012.80 1012.82 1012.90 1013.02 1013.17 1013.31 1013.41 1013.46 1013.46 1013.42 1013.35 1013.27 1013.21 1013.18 1013.20 1013.26 1013.36 1013.51 1013.69 1013.89 1014.10
1011.82 1012.01 1012.08 1012.01 1011.83 1011.56 1011.25 1010.95 1010.73 1010.61 1010.64 1010.80 1011.07 1011.41 1011.78 1012.11 1012.37 1012.54 1012.63 1012.64 1012.61 1012.58 1012.59 1012.64 1012.75 1012.90 1013.08 1013.25 1013.38 1013.45 1013.45 1013.39 1013.27 1013.12 1012.98 1012.86 1012.79 1012.78 1012.84 1012.96 1013.14 1013.35 1013.57
1012.12 1012.22 1012.20 1012.06 1011.82 1011.51 1011.17 1010.84 1010.57 1010.40 1010.35 1010.43 1010.62 1010.89 1011.20 1011.51 1011.79 1012.02 1012.17 1012.27 1012.33 1012.38 1012.45 1012.55 1012.70 1012.89 1013.09 1013.29 1013.44 1013.53 1013.54 1013.45 1013.29 1013.07 1012.84 1012.62 1012.45 1012.35 1012.35 1012.43 1012.58 1012.79 1013.02
1012.38 1012.38 1012.30 1012.12 1011.87 1011.57 1011.24 1010.92 1010.64 1010.44 1010.33 1010.32 1010.41 1010.58 1010.81 1011.07 1011.34 1011.58 1011.78 1011.95 1012.09 1012.21 1012.34 1012.50 1012.69 1012.91 1013.14 1013.37 1013.55 1013.66 1013.67 1013.58 1013.38 1013.10 1012.79 1012.47 1012.20 1012.01 1011.92 1011.94 1012.06 1012.25 1012.48
1012.59 1012.52 1012.39 1012.20 1011.97 1011.71 1011.44 1011.17 1010.93 1010.71 1010.56 1010.47 1010.45 1010.50 1010.63 1010.81 1011.02 1011.25 1011.47 1011.68 1011.88 1012.06 1012.24 1012.44 1012.65 1012.90 1013.16 1013.41 1013.63 1013.77 1013.81 1013.72 1013.52 1013.20 1012.83 1012.43 1012.07 1011.78 1011.61 1011.55 1011.62 1011.77 1011.99
1012.77 1012.63 1012.47 1012.29 1012.10 1011.91 1011.73 1011.54 1011.35 1011.15 1010.97 1010.81 1010.69 1010.62 1010.63 1010.71 1010.84 1011.03 1011.24 1011.46 1011.68 1011.89 1012.10 1012.32 1012.56 1012.82 1013.10 1013.38 1013.62 1013.81 1013.89 1013.84 1013.66 1013.35 1012.95 1012.50 1012.06 1011.70 1011.43 1011.29 1011.29 1011.39 1011.58
1012.94 1012.74 1012.55 1012.37 1012.23 1012.12 1012.03 1011.93 1011.80 1011.65 1011.46 1011.25 1011.05 1010.87 1010.76 1010.73 1010.78 1010.91 1011.08 1011.29 1011.50 1011.72 1011.92 1012.14 1012.37 1012.63 1012.91 1013.21 1013.50 1013.74 1013.89 1013.91 1013.78 1013.51 1013.12 1012.65 1012.18 1011.74 1011.40 1011.19 1011.10 1011.15 1011.28
1013.12 1012.86 1012.63 1012.45 1012.34 1012.28 1012.27 1012.25 1012.20 1012.09 1011.91 1011.68 1011.42 1011.17 1010.97 1010.85 1010.81 1010.87 1010.99 1011.16 1011.35 1011.53 1011.71 1011.90 1012.10 1012.34 1012.62 1012.93 1013.25 1013.55 1013.77 1013.87 1013.83 1013.63 1013.29 1012.85 1012.36 1011.89 1011.50 1011.21 1011.06 1011.04 1011.11
1013.31 1012.99 1012.71 1012.50 1012.39 1012.37 1012.40 1012.44 1012.45 1012.39 1012.25 1012.01 1011.73 1011.44 1011.18 1010.99 1010.89 1010.89 1010.97 1011.09 1011.23 1011.37 1011.50 1011.64 1011.79 1011.98 1012.24 1012.54 1012.89 1013.23 1013.53 1013.72 1013.78 1013.67 1013.40 1013.02 1012.56 1012.09 1011.67 1011.34 1011.13 1011.04 1011.06
1013.51 1013.12 1012.78 1012.52 1012.38 1012.35 1012.40 1012.48 1012.53 1012.52 1012.40 1012.19 1011.92 1011.62 1011.34 1011.12 1011.00 1010.96 1011.00 1011.08 1011.17 1011.26 1011.33 1011.40 1011.48 1011.61 1011.82 1012.10 1012.44 1012.81 1013.16 1013.44 1013.59 1013.58 1013.41 1013.10 1012.70 1012.26 1011.84 1011.50 1011.26 1011.13 1011.10
1013.68 1013.23 1012.82 1012.50 1012.30 1012.24 1012.27 1012.36 1012.44 1012.46 1012.38 1012.21 1011.96 1011.68 1011.42 1011.21 1011.09 1011.04 1011.06 1011.11 1011.17 1011.20 1011.21 1011.21 1011.21 1011.27 1011.41 1011.64 1011.95 1012.32 1012.70 1013.03 1013.26 1013.34 1013.26 1013.04 1012.72 1012.33 1011.95 1011.63 1011.38 1011.24 1011.19
Thickness
5826 5825 5822 5817 5813 5809 5805 5802 5799 5797 5794 5792 5790 5787 5785 5782 5780 5777 5775 5774 5772 5770 5769 5767 5766 5764 5763 5761 5760 5758 5757 5755 5753 5752 5750 5748 5747 5746 5745 5744 5743 5742 5741
5834 5828 5823 5818 5813 5808 5804 5801 5798 5795 5792 5790 5788 5785 5783 5781 5778 5776 5774 5772 5771 5769 5768 5766 5765 5763 5761 5760 5758 5757 5755 5754 5752 5751 5749 5747 5746 5745 5744 5743 5742 5741 5741
5834 5828 5823 5818 5813 5808 5803 5799 5796 5793 5790 5788 5785 5783 5780 5778 5776 5774 5773 5771 5769 5768 5766 5764 5763 5761 5760 5758 5756 5755 5753 5752 5751 5750 5748 5746 5745 5744 5743 5742 5741 5740 5739
5833 5827 5822 5817 5812 5807 5802 5798 5794 5791 5788 5785 5783 5780 5778 5776 5774 5773 5771 5769 5767 5766 5764 5763 5761 5760 5758 5757 5755 5753 5752 5751 5749 5748 5746 5745 5744 5743 5742 5741 5740 5739 5738
5830 5825 5821 5815 5810 5806 5801 5797 5793 5789 5786 5783 5780 5778 5776 5774 5773 5771 5769 5767 5765 5764 5763 5761 5760 5758 5756 5755 5753 5752 5750 5749 5748 5747 5745 5744 5743 5743 5741 5740 5739 5738 5737
5828 5824 5820 5815 5809 5804 5800 5795 5791 5788 5785 5781 5779 5776 5774 5772 5770 5769 5767 5765 5763 5762 5761 5759 5758 5757 5755 5753 5751 5750 5749 5748 5747 5745 5744 5743 5742 5741 5740 5739 5738 5737 5736
5827 5822 5818 5813 5808 5803 5798 5794 5790 5786 5783 5780 5777 5774 5772 5770 5768 5766 5764 5762 5761 5759 5758 5757 5756 5755 5754 5752 5750 5748 5747 5746 5746 5744 5743 5742 5741 5740 5739 5738 5737 5736 5735
5826 5821 5816 5811 5806 5801 5797 5792 5788 5785 5781 5778 5775 5772 5770 5767 5765 5763 5761 5760 5758 5757 5756 5755 5754 5753 5752 5751 5749 5748 5746 5745 5745 5743 5742 5741 5741 5740 5739 5738 5737 5736 5735
5823 5818 5813 5809 5804 5799 5795 5790 5786 5782 5778 5775 5772 5769 5766 5764 5762 5761 5759 5757 5756 5754 5753 5752 5751 5750 5749 5748 5747 5747 5745 5744 5743 5742 5741 5741 5740 5740 5739 5738 5737 5736 5734
5818 5814 5810 5806 5801 5796 5792 5788 5784 5779 5776 5772 5769 5766 5763 5761 5759 5758 5756 5755 5753 5752 5751 5750 5749 5747 5746 5746 5745 5745 5744 5743 5742 5740 5740 5740 5740 5739 5739 5738 5737 5736 5735
5813 5810 5807 5802 5797 5793 5788 5784 5779 5776 5772 5769 5766 5763 5761 5758 5756 5754 5753 5751 5750 5750 5749 5748 5747 5746 5745 5744 5744 5743 5742 5742 5741 5740 5739 5739 5739 5739 5739 5739 5738 5737 5735
5807 5805 5802 5797 5792 5787 5783 5778 5775 5771 5768 5765 5762 5759 5757 5755 5753 5751 5749 5749 5748 5748 5747 5747 5746 5745 5744 5743 5742 5742 5741 5741 5740 5739 5739 5739 5738 5738 5739 5739 5738 5737 5736
5802 5798 5795 5791 5786 5781 5776 5773 5769 5766 5763 5760 5757 5754 5752 5750 5748 5747 5745 5745 5745 5745 5745 5745 5745 5744 5743 5742 5741 5741 5740 5739 5739 5739 5739 5739 5739 5738 5738 5738 5738 5737 5736
5795 5791 5788 5784 5778 5774 5769 5766 5763 5760 5756 5753 5751 5749 5747 5745 5744 5743 5742 5742 5741 5742 5742 5742 5743 5743 5742 5741 5740 5739 5739 5738 5738 5738 5739 5738 5738 5738 5737 5737 5738 5737 5736
5789 5785 5781 5777 5772 5766 5762 5759 5755 5753 5750 5747 5745 5744 5742 5741 5740 5740 5739 5738 5738 5738 5739 5739 5740 5740 5740 5739 5739 5738 5738 5737 5737 5737 5738 5738 5738 5738 5737 5737 5737 5737 5736
5786 5781 5777 5772 5767 5761 5755 5751 5749 5747 5746 5744 5740 5739 5738 5737 5736 5736 5735 5735 5736 5735 5736 5736 5737 5737 5737 5736 5736 5736 5736 5736 5736 5736 5737 5737 5737 5737 5737 5737 5737 5737 5736
5780 5776 5770 5765 5761 5754 5750 5745 5741 5739 5738 5739 5736 5733 5732 5732 5733 5733 5732 5731 5732 5732 5732 5733 5733 5733 5732 5732 5732 5734 5734 5734 5734 5735 5735 5736 5737 5737 5736 5736 5736 5736 5736
5771 5767 5762 5757 5751 5746 5743 5739 5736 5733 5731 5730 5728 5725 5726 5727 5728 5729 5728 5728 5728 5728 5728 5728 5728 5727 5727 5727 5727 5729 5731 5732 5733 5733 5734 5734 5735 5736 5736 5736 5736 5735 5735
5760 5756 5751 5746 5740 5736 5732 5728 5727 5726 5722 5722 5721 5719 5720 5722 5723 5723 5723 5723 5722 5723 5723 5723 5722 5722 5721 5722 5723 5725 5727 5728 5730 5731 5732 5733 5733 5734 5735 5735 5735 5735 5734
5749 5746 5740 5734 5732 5729 5724 5720 5718 5718 5716 5714 5715 5714 5715 5717 5718 5718 5718 5718 5718 5717 5717 5717 5717 5717 5717 5718 5719 5721 5723 5725 5727 5728 5730 5731 5732 5733 5734 5734 5734 5734 5734
5737 5734 5730 5726 5726 5723 5718 5715 5713 5710 5709 5709 5710 5711 5712 5712 5713 5713 5714 5714 5713 5712 5712 5712 5712 5711 5712 5712 5712 5713 5717 5721 5723 5725 5727 5729 5730 5731 5732 5732 5732 5732 5732
5724 5722 5720 5718 5718 5717 5713 5712 5710 5709 5707 5706 5705 5706 5707 5707 5708 5710 5711 5710 5708 5707 5707 5707 5706 5705 5706 5707 5706 5704 5705 5710 5717 5721 5722 5724 5726 5728 5729 5730 5730 5730 5730
5715 5712 5711 5709 5710 5708 5707 5708 5707 5705 5702 5700 5699 5700 5701 5702 5703 5703 5705 5704 5703 5702 5702 5702 5702 5701 5700 5701 5702 5700 5698 5699 5704 5712 5715 5718 5720 5723 5725 5726 5728 5729 5729
5704 5705 5703 5700 5700 5700 5700 5699 5697 5694 5692 5690 5691 5692 5694 5697 5697 5697 5696 5696 5697 5697 5697 5698 5698 5698 5697 5696 5696 5697 5699 5699 5697 5699 5706 5711 5714 5717 5719 5722 5723 5725 5725
5696 5694 5693 5691 5690 5690 5689 5688 5686 5684 5683 5682 5684 5685 5686 5686 5687 5687 5687 5688 5689 5689 5690 5691 5692 5692 5693 5693 5693 5692 5692 5693 5693 5692 5694 5701 5705 5710 5714 5716 5718 5719 5720
5687 5684 5682 5681 5680 5679 5678 5676 5675 5673 5672 5672 5672 5673 5673 5674 5675 5675 5677 5678 5680 5681 5682 5684 5685 5686 5687 5689 5690 5689 5689 5688 5688 5689 5689 5692 5696 5703 5708 5711 5713 5714 5714